Home   Weather   Harstad   Past weeks
Flag for Norway

Past Weather in Harstad, Norway — Yesterday and Last 2 Weeks

Now
46 °F

Passing clouds.


Feels Like: 44 °F
Forecast: 47 / 39 °F
Wind: 5 mph from East

Location: Evenes

Current Time: Sep 16, 2019 at 4:52:21 am

Latest Report: Sep 16, 2019 at 4:20 am


Visibility: N/A

Pressure: 29.42 "Hg

Humidity: 66%

Dew Point: 36 °F

Location of HarstadLocation

Past Weather in Harstad — Graph

°F

Harstad Temperature Yesterday

Maximum temperature yesterday: 54 °F (at 12:50 pm)
Minimum temperature yesterday: 37 °F (at 1:20 am)
Average temperature yesterday: 47 °F

High & Low Weather Summary for the Past Weeks

 TemperatureHumidityPressure
High75 °F (Sep 1, 12:50 pm)100% (Sep 1, 5:20 am)30.21 "Hg (Sep 1, 5:20 am)
Low36 °F (Sep 8, 4:50 am)43% (Sep 11, 6:50 pm)29.24 "Hg (Sep 15, 7:50 am)
Average50 °F82%29.71 "Hg
* Reported Sep 1 2:20 am — Sep 16 2:50 am, Harstad. Weather by CustomWeather, © 2019

Note: Actual official high and low records may vary slightly from our data, if they occured in-between our weather recording intervals... More about our weather records

Advertising

Harstad Weather History for the Previous 24 Hours

Scroll right to see more
 ConditionsComfort  
Time TempWeatherWind HumidityBarometerVisibility
2:50 am
Mon, Sep 16
48 °FOvercast.10 mph62%29.42 "HgN/A
2:20 am48 °FOvercast.14 mph62%29.39 "HgN/A
1:50 am48 °FMostly cloudy.12 mph66%29.39 "HgN/A
1:20 am48 °FPassing clouds.10 mph66%29.39 "HgN/A
12:50 am48 °FMostly cloudy.10 mph66%29.39 "HgN/A
12:20 am48 °FPassing clouds.12 mph66%29.39 "HgN/A
11:50 pm
Sun, Sep 15
48 °FPassing clouds.13 mph66%29.36 "HgN/A
11:20 pm48 °FPassing clouds.14 mph66%29.36 "HgN/A
10:50 pm48 °FClear.13 mph71%29.36 "Hg10 mi
9:50 pm48 °FClear.12 mph66%29.33 "Hg10 mi
8:50 pm50 °FPassing clouds.12 mph62%29.33 "HgN/A
7:50 pm50 °FPassing clouds.14 mph62%29.30 "HgN/A
7:20 pm50 °FScattered clouds.16 mph62%29.30 "HgN/A
6:50 pm50 °FPartly sunny.15 mph62%29.27 "HgN/A
5:50 pm50 °FScattered clouds.14 mph62%29.27 "HgN/A
4:50 pm50 °FScattered clouds.13 mph62%29.27 "HgN/A
3:50 pm52 °FPassing clouds.14 mph58%29.24 "HgN/A
2:50 pm52 °FScattered clouds.15 mph58%29.24 "HgN/A
1:50 pm50 °FScattered clouds.14 mph62%29.24 "HgN/A
12:50 pm54 °FOvercast.17 mph44%29.24 "HgN/A
11:50 am50 °FBroken clouds.12 mph58%29.24 "HgN/A
10:50 am50 °FPartly sunny.15 mph62%29.24 "HgN/A
9:50 am48 °FPartly sunny.14 mph62%29.24 "HgN/A
9:20 am48 °FPartly sunny.17 mph62%29.24 "HgN/A
8:50 am48 °FBroken clouds.14 mph58%29.24 "HgN/A
8:20 am48 °FOvercast.15 mph58%29.24 "HgN/A
7:50 am48 °FOvercast.16 mph62%29.24 "HgN/A
7:20 am48 °FOvercast.14 mph58%29.27 "HgN/A
6:50 am48 °FOvercast.12 mph62%29.27 "HgN/A
6:20 am46 °FPartly sunny.9 mph66%29.30 "HgN/A
5:50 am48 °FPassing clouds.10 mph62%29.30 "HgN/A
5:20 am46 °FPassing clouds.9 mph66%29.30 "HgN/A
4:50 am46 °FPassing clouds.8 mph66%29.33 "HgN/A
4:20 am46 °FCool.7 mph66%29.36 "HgN/A
Weather by CustomWeather, © 2019

See weather overview